Chrysopouli, Greece

1:10 PM EET on January 22, 2018 (GMT +0200)
Megas Alexandros

Weather History for LGKV - March, 2013

Change the Weather History Date:

Saturday, March 23, 2013

  Actual Average Record
Temperature  
Mean Temperature 50 °F -  
Max Temperature 57 °F 54 °F 64 °F (2001)
Min Temperature 42 °F 40 °F 28 °F (2003)
Degree Days  
Heating Degree Days 16    
Moisture  
Dew Point 34 °F    
Average Humidity 52    
Maximum Humidity 66    
Minimum Humidity 38    
Precipitation  
Precipitation 0.00 in - - ()
Sea Level Pressure  
Sea Level Pressure 29.84 in    
Wind  
Wind Speed 11 mph ()    
Max Wind Speed 15 mph    
Max Gust Speed -    
Visibility 6.2 miles    
Events      
Averages and records for this station are not official NWS values.
T = Trace of Precipitation, MM = Missing Value Source: Averaged Metar Reports

Daily Weather History Graph

Daily Weather History Graph

Search for Another Location

Airport or City:

Trip Planner

Search our weather history database for the weather conditions in past years. The results will help you decide how hot, cold, wet, or windy it might be!

Date:

Astronomy

Mar. 23, 2013 Rise Set
Actual Time 6:20 AM EET 6:36 PM EET
Civil Twilight 5:52 AM EET 7:04 PM EET
Nautical Twilight 5:20 AM EET 7:36 PM EET
Astronomical Twilight 4:47 AM EET 8:09 PM EET
Moon 2:43 PM EET (3/23) 3:46 AM EET (3/23)
Length of Visible Light 13h 11m
Length of Day
12h 16m
Waxing Gibbous, 83% of the Moon is Illuminated
Mar 23
Waxing Gibbous
Mar 27
Full
Apr 3
Last Quarter
Apr 10
New
Apr 18
First Quarter

Hourly Weather History & Observations

Time (EET) Temp. Windchill Dew Point Humidity Pressure Visibility Wind Dir Wind Speed Gust Speed Precip Events Conditions
5:20 AM 42.8 °F 37.0 °F 32.0 °F 66% 29.74 in 6.2 mi NW 10.4 mph - N/A   Partly Cloudy
5:50 AM 42.8 °F 35.4 °F 32.0 °F 66% 29.77 in 6.2 mi West 15.0 mph - N/A   Partly Cloudy
6:20 AM 42.8 °F 35.4 °F 32.0 °F 66% 29.77 in - WNW 15.0 mph - N/A   Clear
6:50 AM 42.8 °F 36.2 °F 32.0 °F 66% 29.77 in - WNW 12.7 mph - N/A   Clear
7:20 AM 42.8 °F 36.2 °F 32.0 °F 66% 29.80 in - WNW 12.7 mph - N/A   Clear
7:50 AM 46.4 °F 41.1 °F 32.0 °F 57% 29.80 in - WNW 11.5 mph - N/A   Clear
8:20 AM 48.2 °F - 33.8 °F 58% 29.83 in - WNW 11.5 mph - N/A   Clear
8:50 AM 48.2 °F - 33.8 °F 58% 29.83 in - West 13.8 mph - N/A   Clear
9:20 AM 50.0 °F - 33.8 °F 54% 29.83 in - WSW 13.8 mph - N/A   Clear
9:50 AM 50.0 °F - 33.8 °F 54% 29.83 in - West 15.0 mph - N/A   Clear
10:20 AM 51.8 °F - 33.8 °F 50% 29.86 in - West 15.0 mph - N/A   Clear
10:50 AM 53.6 °F - 35.6 °F 51% 29.83 in - West 15.0 mph - N/A   Clear
11:20 AM 53.6 °F - 35.6 °F 51% 29.86 in - West 15.0 mph - N/A   Clear
11:50 AM 55.4 °F - 37.4 °F 51% 29.86 in - WSW 15.0 mph - N/A   Clear
12:20 PM 55.4 °F - 37.4 °F 51% 29.86 in - SSW 12.7 mph - N/A   Clear
12:50 PM 55.4 °F - 35.6 °F 47% 29.83 in - SSW 11.5 mph - N/A   Clear
1:20 PM 55.4 °F - 32.0 °F 41% 29.83 in - SSW 11.5 mph - N/A   Clear
1:50 PM 57.2 °F - 32.0 °F 38% 29.83 in - SSW 11.5 mph - N/A   Clear
2:20 PM 57.2 °F - 32.0 °F 38% 29.83 in - SSW 11.5 mph - N/A   Clear
2:50 PM 57.2 °F - 32.0 °F 38% 29.83 in - SSW 11.5 mph - N/A   Clear
3:20 PM 57.2 °F - 32.0 °F 38% 29.83 in - SSW 11.5 mph - N/A   Clear
3:50 PM 57.2 °F - 32.0 °F 38% 29.83 in - SSW 12.7 mph - N/A   Clear
4:20 PM 57.2 °F - 32.0 °F 38% 29.83 in - SSW 12.7 mph - N/A   Clear
4:50 PM 57.2 °F - 32.0 °F 38% 29.83 in - SSW 11.5 mph - N/A   Clear
5:20 PM 55.4 °F - 32.0 °F 41% 29.83 in - SSW 11.5 mph - N/A   Clear
5:50 PM 55.4 °F - 35.6 °F 47% 29.86 in - SSW 5.8 mph - N/A   Clear
6:20 PM 55.4 °F - 39.2 °F 54% 29.86 in - Calm Calm - N/A   Clear
6:50 PM 53.6 °F - 37.4 °F 54% 29.89 in - Calm Calm - N/A   Clear
7:20 PM 51.8 °F - 37.4 °F 58% 29.89 in - NNE 6.9 mph - N/A   Clear
7:50 PM 50.0 °F - 37.4 °F 62% 29.92 in - NE 8.1 mph - N/A   Clear
8:20 PM 50.0 °F - 37.4 °F 62% 29.92 in - NE 8.1 mph - N/A   Clear
8:50 PM 48.2 °F - 37.4 °F 66% 29.92 in - NNE 6.9 mph - N/A   Clear